User: anonymous   Login
Location: Arbon
(43.0005°N, 0.7472°E)
Time: 15:46:23
(UTC+00:00)
Language:

Transit 2A - Orbit

View from above orbital plane
View from above orbital plane
View from above satellite
View from above satellite

Ground track
Ground track

The orbit data is extracted from the following two-line orbital elements,

1    45U 60007A   20331.08004121 -.00000043  00000-0  16150-4 0  9992
2    45  66.6941 314.9434 0258071 199.5486 159.5580 14.33696427145879
Epoch (UTC): 26 November 2020 01:55:15
Eccentricity: 0.0258071
inclination: 66.6941°
perigee height: 594 km
apogee height: 964 km
right ascension of ascending node: 314.9434°
argument of perigee: 199.5486°
revolutions per day: 14.33696427
mean anomaly at epoch: 159.5580°
orbit number at epoch: 14587

The dashed part of the orbit path shows where the satellite is in the earth's shadow,  

DLR